Simultaneous Nadir Overpasses (SNOs) Predictions

Prediction of SNOs between NOAA-20 and AQUA Satellite Orbit:

Table of predicted SNOs for the next 14.0 days since TLE Epoch: 10/19/2024
Index Date (NOAA-20) Time (NOAA-20) Lat,Lon (NOAA-20) SZA (NOAA-20 ) Date (AQUA) Time (AQUA) Lat,Lon (AQUA) SZA (AQUA ) Distance(km) Time Diff (sec)
1 10/20/2024 19:42:58 81.32, 171.84 97.45 10/20/2024 19:43:34 81.31, 171.83 97.42 0.52 36
2 10/20/2024 20:33:41 -81.32, -20.20 82.63 10/20/2024 20:32:54 -81.33, -20.16 82.61 1.01 47
3 10/23/2024 06:55:24 81.32, 3.74 98.29 10/23/2024 06:56:00 81.32, 3.88 98.25 2.19 36
4 10/23/2024 07:46:07 -81.32, 171.72 81.79 10/23/2024 07:45:21 -81.31, 171.52 81.74 3.32 46
5 10/25/2024 18:07:49 81.32,-164.12 99.09 10/25/2024 18:08:22 81.31,-164.29 99.09 2.95 33
6 10/25/2024 18:58:32 -81.32, 3.86 80.99 10/25/2024 18:57:42 -81.33, 3.76 80.95 1.76 50
7 10/28/2024 05:20:14 81.32, 27.85 99.90 10/28/2024 05:20:39 81.31, 27.73 99.90 2.22 25
8 10/28/2024 06:10:57 -81.32,-164.15 80.19 10/28/2024 06:09:59 -81.33,-164.21 80.15 1.19 58
9 10/30/2024 16:32:38 81.32,-139.94 100.65 10/30/2024 16:32:51 81.32,-140.08 100.66 2.24 13
10 10/30/2024 17:23:22 -81.32, 27.67 79.38 10/30/2024 17:22:12 -81.32, 27.61 79.33 1.05 70



Historial Predications of SNOs between NOAA-20 and AQUA
